#timestamp,LO_Frequency,Hit,Temp,Hum 
1478304015.2,286046982.6,N,0.0,0.0
1478304035.0,286046981.9,N,0.0,0.0
1478304035.9,286046981.9,N,0.0,0.0
1478304055.8,286046982.1,N,0.0,0.0
1478304075.6,286046983.7,N,0.0,0.0
1478304095.4,286046985.1,N,0.0,0.0
1478304115.2,286046986.5,N,0.0,0.0
1478304135.1,286046985.6,N,0.0,0.0
1478304136.0,286046985.6,N,0.0,0.0
1478304155.8,286046987.8,N,0.0,0.0
1478304175.6,286046985.9,N,0.0,0.0
1478304195.5,286046986.6,N,0.0,0.0
1478304215.3,286046988.0,N,0.0,0.0
1478304235.1,286046988.2,N,0.0,0.0
1478304255.9,286046985.6,N,0.0,0.0
1478304275.7,286046984.3,N,0.0,0.0
1478304295.5,286046984.7,N,0.0,0.0
1478304315.4,286046982.3,N,0.0,0.0
1478304335.2,286046985.2,N,0.0,0.0
1478304355.0,286046984.3,N,0.0,0.0
1478304355.9,286046984.3,N,0.0,0.0
1478304375.8,286046986.8,N,0.0,0.0
1478304395.6,286046988.1,N,0.0,0.0
1478304415.4,286046987.1,N,0.0,0.0
1478304435.3,286046986.0,N,0.0,0.0
1478304455.1,286046987.5,N,0.0,0.0
1478304456.0,286046987.5,N,0.0,0.0
1478304475.8,286046986.9,N,0.0,0.0
1478304495.7,286046989.3,N,0.0,0.0
1478304515.5,286046988.3,N,0.0,0.0
1478304535.3,286046987.1,N,0.0,0.0
1478304555.2,286046985.5,N,0.0,0.0
1478304575.9,286046985.3,N,0.0,0.0
1478304595.7,286046987.9,N,0.0,0.0
1478304615.5,286046987.1,N,0.0,0.0
1478304635.4,286046987.0,N,0.0,0.0
1478304655.2,286046991.4,N,0.0,0.0
1478304675.0,286046993.2,N,0.0,0.0
1478304675.9,286046993.2,N,0.0,0.0
1478304695.8,286046992.2,N,0.0,0.0
1478304715.6,286046993.1,N,0.0,0.0
1478304735.4,286046990.3,N,0.0,0.0
1478304755.3,286046993.1,N,0.0,0.0
1478304775.1,286046989.7,N,0.0,0.0
1478304795.8,286046992.6,N,0.0,0.0
1478304815.7,286046988.8,N,0.0,0.0
1478304835.5,286046989.0,N,0.0,0.0
1478304855.3,286046989.5,N,0.0,0.0
1478304875.2,286046988.9,N,0.0,0.0
1478304895.9,286046991.0,N,0.0,0.0
1478304915.7,286046990.5,N,0.0,0.0
1478304935.6,286046992.4,N,0.0,0.0
1478304955.4,286046991.7,N,0.0,0.0
1478304975.2,286046992.9,N,0.0,0.0
1478304995.0,286046992.9,N,0.0,0.0
1478304996.0,286046992.9,N,0.0,0.0
1478305015.8,286046991.3,N,0.0,0.0
1478305035.6,286046990.9,N,0.0,0.0
1478305055.4,286046992.6,N,0.0,0.0
1478305075.3,286046990.8,N,0.0,0.0
1478305095.1,286046992.6,N,0.0,0.0
1478305115.8,286046992.2,N,0.0,0.0
1478305135.7,286046992.6,N,0.0,0.0
1478305155.5,286046992.6,N,0.0,0.0
1478305175.3,286046992.3,N,0.0,0.0
1478305195.2,286046993.0,N,0.0,0.0
1478305215.9,286046992.7,N,0.0,0.0
1478305235.7,286046992.6,N,0.0,0.0
1478305255.6,286046994.4,N,0.0,0.0
1478305275.4,286046994.5,N,0.0,0.0
1478305295.2,286046996.0,N,0.0,0.0
1478305315.1,286046995.6,N,0.0,0.0
1478305316.0,286046995.6,N,0.0,0.0
1478305335.8,286046992.2,N,0.0,0.0
1478305355.6,286046994.8,N,0.0,0.0
1478305375.5,286046994.6,N,0.0,0.0
1478305395.3,286046995.8,N,0.0,0.0
1478305415.1,286046994.1,N,0.0,0.0
1478305435.8,286046994.4,N,0.0,0.0
1478305455.7,286046995.6,N,0.0,0.0
1478305475.5,286046995.9,N,0.0,0.0
1478305495.3,286046995.9,N,0.0,0.0
1478305515.2,286046997.6,N,0.0,0.0
1478305535.0,286046999.5,N,0.0,0.0
1478305535.9,286046999.5,N,0.0,0.0
1478305555.7,286046996.9,N,0.0,0.0
1478305575.6,286046997.7,N,0.0,0.0
1478305595.4,286046993.8,N,0.0,0.0
1478305615.2,286046993.4,N,0.0,0.0
1478305635.1,286046993.7,N,0.0,0.0
1478305636.0,286046993.7,N,0.0,0.0
1478305655.8,286046995.0,N,0.0,0.0
1478305675.6,286046997.7,N,0.0,0.0
1478305695.5,286046994.9,N,0.0,0.0
1478305715.3,286046995.3,N,0.0,0.0
1478305735.1,286046995.4,N,0.0,0.0
1478305755.9,286046994.0,N,0.0,0.0
1478305775.7,286046996.3,N,0.0,0.0
1478305795.5,286046997.7,N,0.0,0.0
1478305815.4,286046998.0,N,0.0,0.0
1478305835.2,286046995.7,N,0.0,0.0
1478305855.0,286046995.3,N,0.0,0.0
1478305855.9,286046995.3,N,0.0,0.0
1478305875.8,286046997.3,N,0.0,0.0
1478305895.6,286046997.5,N,0.0,0.0
1478305915.4,286046995.7,N,0.0,0.0
1478305935.2,286046997.5,N,0.0,0.0
1478305955.1,286046997.7,N,0.0,0.0
1478305956.0,286046997.7,N,0.0,0.0
1478305975.8,286046997.9,N,0.0,0.0
1478305995.6,286046996.7,N,0.0,0.0
1478306015.5,286046998.3,N,0.0,0.0
1478306035.3,286046998.5,N,0.0,0.0
1478306055.1,286046999.5,N,0.0,0.0
1478306075.9,286046999.0,N,0.0,0.0
1478306095.7,286046996.8,N,0.0,0.0
1478306115.5,286046997.4,N,0.0,0.0
1478306135.4,286046996.9,N,0.0,0.0
1478306155.2,286046997.7,N,0.0,0.0
1478306175.0,286046998.9,N,0.0,0.0
1478306175.9,286046998.9,N,0.0,0.0
1478306195.8,286046999.0,N,0.0,0.0
1478306215.6,286046997.2,N,0.0,0.0
1478306235.4,286046999.0,N,0.0,0.0
1478306255.3,286046999.2,N,0.0,0.0
1478306275.1,286046998.3,N,0.0,0.0
1478306276.0,286046998.3,N,0.0,0.0
1478306295.8,286046999.8,N,0.0,0.0
1478306315.7,286047000.5,N,0.0,0.0
1478306335.5,286046998.3,N,0.0,0.0
1478306355.3,286046996.7,N,0.0,0.0
1478306375.1,286046999.6,N,0.0,0.0
1478306395.9,286046997.0,N,0.0,0.0
1478306415.7,286046998.5,N,0.0,0.0
1478306435.5,286047001.0,N,0.0,0.0
1478306455.4,286047000.3,N,0.0,0.0
1478306475.2,286046999.8,N,0.0,0.0
1478306495.0,286046998.1,N,0.0,0.0
1478306495.9,286046998.1,N,0.0,0.0
1478306515.8,286046998.7,N,0.0,0.0
1478306535.6,286046999.9,N,0.0,0.0
1478306555.4,286047000.6,N,0.0,0.0
1478306575.3,286047000.0,N,0.0,0.0
1478306595.1,286047002.7,N,0.0,0.0
1478306615.8,286046998.1,N,0.0,0.0
1478306635.7,286047000.6,N,0.0,0.0
1478306655.5,286047002.8,N,0.0,0.0
1478306675.3,286046999.7,N,0.0,0.0
1478306695.2,286047002.1,N,0.0,0.0
1478306715.9,286047004.0,N,0.0,0.0
1478306735.7,286047003.8,N,0.0,0.0
1478306755.6,286047003.8,N,0.0,0.0
1478306775.4,286047004.0,N,0.0,0.0
1478306795.2,286047003.4,N,0.0,0.0
1478306815.0,286047003.1,N,0.0,0.0
1478306816.0,286047003.1,N,0.0,0.0
1478306835.8,286047003.4,N,0.0,0.0
1478306855.6,286047005.6,N,0.0,0.0
1478306875.4,286047003.4,N,0.0,0.0
1478306895.3,286047002.2,N,0.0,0.0
1478306915.1,286047002.1,N,0.0,0.0
1478306935.8,286047002.0,N,0.0,0.0
1478306955.7,286047000.1,N,0.0,0.0
1478306975.5,286047000.9,N,0.0,0.0
1478306995.3,286046998.4,N,0.0,0.0
1478307015.2,286047002.5,N,0.0,0.0
1478307035.9,286046998.2,N,0.0,0.0
1478307055.7,286047002.6,N,0.0,0.0
1478307075.6,286047002.4,N,0.0,0.0
1478307095.4,286047002.4,N,0.0,0.0
1478307115.2,286047001.4,N,0.0,0.0
1478307135.1,286047001.6,N,0.0,0.0
1478307136.0,286047001.6,N,0.0,0.0
1478307155.8,286047004.2,N,0.0,0.0
1478307175.6,286047004.1,N,0.0,0.0
1478307195.5,286047002.4,N,0.0,0.0
1478307215.3,286047001.7,N,0.0,0.0
1478307235.1,286047003.8,N,0.0,0.0
1478307255.8,286047001.6,N,0.0,0.0
1478307275.7,286047002.1,N,0.0,0.0
1478307295.5,286047001.6,N,0.0,0.0
1478307315.3,286047002.0,N,0.0,0.0
1478307335.2,286047003.1,N,0.0,0.0
1478307355.0,286047004.1,N,0.0,0.0
1478307355.9,286047004.1,N,0.0,0.0
1478307375.7,286047002.9,N,0.0,0.0
1478307395.6,286047003.5,N,0.0,0.0
1478307415.4,286047002.2,N,0.0,0.0
1478307435.2,286047000.1,N,0.0,0.0
1478307455.1,286047004.0,N,0.0,0.0
1478307456.0,286047004.0,N,0.0,0.0
1478307475.8,286047004.3,N,0.0,0.0
1478307495.6,286047003.5,N,0.0,0.0
1478307515.5,286047002.5,N,0.0,0.0
1478307535.3,286047004.4,N,0.0,0.0
1478307555.1,286047002.6,N,0.0,0.0
1478307575.9,286047004.3,N,0.0,0.0
1478307595.7,286047005.9,N,0.0,0.0
